Regional Weather Roundup
Issued by NWS Huntsville, AL

Home | Current Version | Previous Version | Text Only | Print | Product List | Glossary On
Versions: 1 2 3 4 5 6 7 8 9 10 11 12 13 14 15 16 17 18 19 20 21 22 23 24 25 26 27 28 29 30 31 32 33 34 35 36 37 38 39 40 41 42 43 44 45 46 47 48 49 50
000
ASUS44 KHUN 280210
RWRHUN

WEATHER ROUNDUP FOR THE TENNESSEE VALLEY
NATIONAL WEATHER SERVICE HUNTSVILLE AL
900 PM CDT WED MAY 27 2015

ALZ001>004-280300-
NORTHWEST ALABAMA

CITY           SKY/WX    TMP DP  RH WIND       PRES   REMARKS
COURTLAND HCN    N/A     66 N/A N/A SE7         N/A
BANKHEAD NF      N/A     65  64  96 CALM        N/A
RUSSELLVILLE     N/A     66 N/A N/A MISG        N/A
SHOALS AIRPORT RAIN      68  66  93 SE12      30.19R
SHOALS TVA RES   N/A     68 N/A N/A MISG        N/A
$$

ALZ005>007-016-280300-
NORTH CENTRAL ALABAMA

CITY           SKY/WX    TMP DP  RH WIND       PRES   REMARKS
CULLMAN AG STN   N/A     66 N/A N/A CALM        N/A
DECATUR AP     HVY RAIN  67  66  97 W3        30.24R FOG
HUNTSVILLE AP  HVY RAIN  68  65  90 W3        30.24R FOG
HUN NWS/UAH      N/A     68  65  90 W6          N/A
MERIDIANVILLE  HVY RAIN  64  63  94 S8        30.24R
REDSTONE ARSN  RAIN      66  64  94 SW2       30.23R FOG
VINEMONT AP    CLOUDY    65  64  97 CALM      30.25F
$$

ALZ008>010-280300-
NORTHEAST ALABAMA

CITY           SKY/WX    TMP DP  RH WIND       PRES   REMARKS
ALBERTVILLE    TSTM      64  64 100 W8        30.25R
FORT PAYNE     RAIN      68  63  83 SW20G28   30.25R
SCOTTSBORO HCN   N/A     70 N/A N/A MISG        N/A
VALLEY HEAD      N/A     75 N/A N/A MISG        N/A
$$

TNZ076-096-097-280300-
SOUTHEASTERN MIDDLE TENNESSEE

CITY           SKY/WX    TMP DP  RH WIND       PRES   REMARKS
TULLAHOMA      MOCLDY    70  66  88 CALM      30.22R
WINCHESTER     CLOUDY    70  66  88 S7        30.22R
$$

...SURROUNDING SITES...

CITY           SKY/WX    TMP DP  RH WIND       PRES   REMARKS
ATLANTA        CLOUDY    77  65  66 CALM      30.20R
ANNISTON       TSTM      67  65  93 CALM      30.24F FOG
BIRMINGHAM     TSTM      68  68 100 NE5       30.24R
CHATTANOOGA    CLOUDY    77  65  66 S5        30.20R
CORINTH        FAIR      68  66  94 SE5       30.13S
DALTON         CLOUDY    70  68  94 CALM      30.20R
GADSDEN        CLOUDY   N/A N/A N/A CALM      30.24R
GOLDEN TRNGL   CLOUDY    70  66  88 SE13      30.12R
HALEYVILLE     HVY RAIN  65  65 100 NE3       30.22S FOG
JACKSON TN     CLOUDY    71  66  84 S5        30.13R
LEWISBURG      CLOUDY    68  67  96 S6        30.18R
MEMPHIS        CLOUDY    73  66  78 SE7       30.09S
NASHVILLE      CLOUDY    69  68  96 CALM      30.18R
OXFORD MS      FAIR      66  64  94 E5        30.12R
ROME           CLOUDY    73  68  84 CALM      30.21R
SAVANNAH       CLEAR     68  32  26 CALM      30.15R
TUPELO         CLOUDY    68  65  90 E6        30.11F
TUSCALOOSA     CLOUDY    69  67  93 E7        30.15F
$$

...GULF COAST WEATHER...

CITY           SKY/WX    TMP DP  RH WIND       PRES   REMARKS
GULFPORT       CLOUDY    77  70  79 E5        30.10R
PASCAGOULA     CLOUDY    74  72  93 CALM      30.12R
MOBILE         CLOUDY    73  71  93 NE3       30.13S
GULF SHORES    MOCLDY    72  71  95 E6        30.11F
PENSACOLA      CLOUDY    79  75  87 CALM      30.11F
DESTIN         MOCLDY    79  70  74 SE7       30.13F
PANAMA CITY    PTCLDY    72  72 100 NE3       30.14S
APPALACHICOLA  MOCLDY    79  72  79 N3        30.14R
$$




USA.gov is the U.S. government's official web portal to all federal, state and local government web resources and services.